Terminal Aerodrome Forecast
Issued by NWS

Home | Current Version | Previous Version | Text Only | Print | Product List | Glossary On
Versions: 1 2 3 4 5 6 7 8 9 10 11 12 13 14 15 16 17 18 19 20 21 22
603
FTUS43 KPAH 271441 AAA
TAFCGI
TAF AMD
KCGI 271441Z 2715/2812 12008KT P6SM BKN060
     FM271700 18010G16KT P6SM VCTS BKN030CB
      TEMPO 2718/2722 2SM -TSRA BR BKN030CB
     FM280000 17008KT P6SM VCSH SCT050 BKN150=

USA.gov is the U.S. government's official web portal to all federal, state and local government web resources and services.